Погода в Малиново

Россия / Приморский край     45°24′17″N   134°18′16″E
темп.,
°C
ветер,
м/с
пор.,
м/с
влажн.,
%
обл.,
%
осадки,
мм/ч
давл.,
гПа
погр.,
м
6 марта, сб
сб601:00−19сз512680 0.0 10311035
04:00−20сз4117610 0.0 1033972
07:00−20зсз4108097 0.0 1035807
10:00−18зсз487198 0.0 1036866
13:00−14зсз4764100 0.0 10351003
16:00−12зсз486598 0.0 10331136
19:00−14з2587100 0.0 1034200
22:00−16юз119477 0.0 103520
7 марта, вс
вс701:00−17ююз22950 0.0 103469
04:00−17ююз22950 0.0 103459
07:00−17ююз229516 0.0 103336
10:00−13ю247658 0.0 1031363
13:00−7ююз34541 0.0 1028914
16:00−5зюз244735 0.0 1025959
19:00−9з127548 0.0 102528
22:00−10юз228072 0.0 102637
8 марта, пн
пн801:00−11зюз238898 0.0 102667
04:00−12зюз239696 0.1 102789
07:00−13зюз229690 0.1 102947
10:00−9з247548 0.1 1030477
13:00−4зсз245833 0.0 1029858
16:00−3з235417 0.0 1027870
19:00−7юз11780 0.0 102721
22:00−9ю22840 0.0 102724
9 марта, вт
вт901:00−10ю22850 0.0 102438
04:00−10ю22880 0.0 102245
07:00−10ю248427 0.0 101976
10:00−3ю397037 0.0 1016358
13:00+4ююз611600 0.0 10121097
16:00+5зюз612573 0.0 10101609
19:00−1сз8148788 0.9 1010945
22:00−4з4137375 0.9 1013706
10 марта, ср
ср1001:00−4зсз6129293 0.6 1015882
04:00−8зсз6148496 0.9 1017738
07:00−8сз51281100 0.1 1022750
10:00−6сз4975100 0.2 1024573
13:00−3зсз476440 0.0 1024842
16:00−2зсз476120 0.0 1025846
19:00−5зсз23760 0.0 102666
22:00−7юз118210 0.0 102821